Date String (YYYY-MM-DD hh:mm:ss) UTC,Instrument flags,Ambient pressure (hPa),Sample flow (lpm),Bypass flow (lpm),Sample temperature (°C),Ambient temperature (°C),ASC tube jacket temperature (°C),LED temperature (°C),Box temperature (°C),Sample RH (%),Span deviation,Mass concentration (μg/m³),Mass concentration (μg/m³),Mass concentration (μg/m³)
DateTimeUTC,F1_M11,P_M11,Q1_M11,Q2_M11,T1_M11,T2_M11,T3_M11,T4_M11,T5_M11,U1_M11,ZSPAN_M11,X2_M11,X0_M11,X1_M11
2023-05-21 06:00:00,,0835.2,5.01,0.00,29.2,27.3,00.0,37.6,30.7,20.9,0003.1,0012.03,0015.95,0011.53
2023-05-21 06:01:00,,0835.3,5.00,0.00,29.2,27.3,00.0,37.6,30.7,21.0,0002.9,0012.07,0016.07,0011.59
2023-05-21 06:02:00,,0835.4,4.99,0.00,29.1,27.3,00.0,37.6,30.7,21.0,0003.0,0012.11,0016.07,0011.62
2023-05-21 06:03:00,,0835.3,5.01,0.00,29.1,27.3,00.0,37.6,30.7,21.0,0003.1,0012.14,0016.02,0011.66
2023-05-21 06:04:00,,0835.4,5.00,0.00,29.1,27.3,00.0,37.6,30.7,21.0,0002.9,0012.17,0016.10,0011.67
2023-05-21 06:05:00,,0835.3,5.00,0.00,29.1,27.3,00.0,37.5,30.7,20.9,0002.9,0012.20,0016.21,0011.68
2023-05-21 06:06:00,,0835.1,5.00,0.00,29.1,27.3,00.0,37.5,30.7,20.9,0002.7,0012.23,0016.23,0011.70
2023-05-21 06:07:00,,0834.7,5.00,0.00,29.1,27.3,00.0,37.5,30.7,20.9,0002.7,0012.23,0016.18,0011.71
2023-05-21 06:08:00,,0834.7,4.99,0.00,29.1,27.3,00.0,37.5,30.7,20.9,0002.6,0012.26,0016.39,0011.72
2023-05-21 06:09:00,,0834.8,5.00,0.00,29.1,27.3,00.0,37.5,30.7,20.9,0002.5,0012.27,0016.51,0011.73
2023-05-21 06:10:00,,0834.7,5.00,0.00,29.1,27.3,00.0,37.5,30.7,20.8,0002.5,0012.29,0016.54,0011.76
2023-05-21 06:11:00,,0834.7,5.00,0.00,29.1,27.3,00.0,37.5,30.7,20.8,0002.6,0012.33,0016.58,0011.79
2023-05-21 06:12:00,,0834.9,5.00,0.00,29.1,27.3,00.0,37.5,30.7,20.8,0002.7,0012.37,0016.51,0011.81
2023-05-21 06:13:00,,0834.8,5.01,0.00,29.1,27.3,00.0,37.5,30.7,20.8,0002.6,0012.38,0016.52,0011.84
2023-05-21 06:14:00,,0834.9,5.01,0.00,29.1,27.3,00.0,37.5,30.7,20.8,0002.6,0012.42,0016.55,0011.87
2023-05-21 06:15:00,,0835.0,5.00,0.00,29.1,27.3,00.0,37.5,30.7,20.8,0002.8,0012.45,0016.54,0011.92
2023-05-21 06:16:00,,0835.2,5.00,0.00,29.1,27.3,00.0,37.5,30.7,20.8,0002.8,0012.48,0016.48,0011.98
2023-05-21 06:17:00,,0834.8,5.01,0.00,29.1,27.3,00.0,37.5,30.6,20.8,0002.7,0012.51,0016.54,0012.01
2023-05-21 06:18:00,,0834.8,5.00,0.00,29.1,27.3,00.0,37.5,30.6,20.8,0002.7,0012.57,0016.60,0012.06
2023-05-21 06:19:00,,0834.6,4.99,0.00,29.1,27.3,00.0,37.5,30.6,20.9,0002.9,0012.62,0016.52,0012.11
2023-05-21 06:20:00,,0834.7,4.99,0.00,29.1,27.3,00.0,37.5,30.6,20.9,0003.1,0012.67,0016.56,0012.15
2023-05-21 06:21:00,,0834.6,4.99,0.00,29.1,27.3,00.0,37.5,30.6,20.9,0003.1,0012.71,0016.60,0012.19
2023-05-21 06:22:00,,0834.7,5.00,0.00,29.0,27.3,00.0,37.5,30.6,20.9,0003.0,0012.70,0016.54,0012.21
2023-05-21 06:23:00,,0834.6,5.00,0.00,29.1,27.3,00.0,37.5,30.6,20.9,0003.0,0012.71,0016.56,0012.22
2023-05-21 06:24:00,,0834.6,4.99,0.00,29.1,27.3,00.0,37.4,30.6,20.8,0003.0,0012.71,0016.54,0012.22
2023-05-21 06:25:00,,0834.7,4.99,0.00,29.0,27.2,00.0,37.4,30.6,20.9,0002.9,0012.72,0016.57,0012.24
2023-05-21 06:26:00,,0835.0,5.00,0.00,29.0,27.2,00.0,37.4,30.6,20.8,0003.0,0012.77,0016.72,0012.26
2023-05-21 06:27:00,,0835.1,5.01,0.00,29.0,27.2,00.0,37.4,30.6,20.7,0003.0,0012.82,0017.23,0012.28
2023-05-21 06:28:00,,0835.1,5.00,0.00,29.0,27.2,00.0,37.4,30.6,20.6,0003.0,0012.85,0017.25,0012.31
2023-05-21 06:29:00,,0835.1,5.00,0.00,29.0,27.2,00.0,37.4,30.6,20.6,0002.9,0012.85,0017.22,0012.31
2023-05-21 06:30:00,,0834.8,5.00,0.00,29.0,27.2,00.0,37.4,30.6,20.6,0002.7,0012.82,0017.11,0012.30
2023-05-21 06:31:00,,0834.6,4.99,0.00,29.0,27.2,00.0,37.4,30.6,20.6,0002.8,0012.81,0017.09,0012.28
2023-05-21 06:32:00,,0834.5,4.99,0.00,29.0,27.2,00.0,37.4,30.5,20.5,0002.9,0012.84,0017.14,0012.27
2023-05-21 06:33:00,,0834.5,4.99,0.00,29.0,27.1,00.0,37.4,30.5,20.4,0003.1,0012.88,0017.24,0012.27
2023-05-21 06:34:00,,0834.5,5.00,0.00,29.0,27.1,00.0,37.4,30.5,20.4,0003.3,0012.85,0017.22,0012.25
2023-05-21 06:35:00,,0834.5,5.00,0.00,29.0,27.1,00.0,37.4,30.5,20.4,0003.5,0012.85,0017.27,0012.23
2023-05-21 06:36:00,,0834.4,5.01,0.00,29.0,27.1,00.0,37.4,30.5,20.3,0003.6,0012.79,0017.14,0012.20
2023-05-21 06:37:00,,0834.5,5.00,0.00,29.0,27.1,00.0,37.4,30.5,20.3,0003.6,0012.77,0017.05,0012.19
2023-05-21 06:38:00,,0834.5,5.01,0.00,28.9,27.1,00.0,37.4,30.5,20.5,0003.6,0012.71,0016.53,0012.15
2023-05-21 06:39:00,,0834.5,5.00,0.00,28.9,27.1,00.0,37.4,30.5,20.7,0003.7,0012.69,0016.55,0012.10
2023-05-21 06:40:00,,0834.5,5.01,0.00,28.9,27.1,00.0,37.4,30.5,21.1,0003.8,0012.67,0016.57,0012.08
2023-05-21 06:41:00,,0834.5,4.99,0.00,28.9,27.1,00.0,37.3,30.5,21.3,0003.9,0012.63,0016.51,0012.06
2023-05-21 06:42:00,,0834.5,4.99,0.00,28.9,27.0,00.0,37.3,30.5,21.1,0003.8,0012.62,0016.45,0012.05
2023-05-21 06:43:00,,0834.5,5.01,0.00,28.9,27.0,00.0,37.3,30.5,20.9,0003.6,0012.57,0016.44,0012.02
2023-05-21 06:44:00,,0834.5,5.01,0.00,28.9,27.0,00.0,37.3,30.5,21.1,0003.4,0012.50,0016.32,0011.99
2023-05-21 06:45:00,,0834.5,5.01,0.00,28.9,27.0,00.0,37.3,30.5,20.9,0003.1,0012.48,0016.27,0011.97
2023-05-21 06:46:00,,0834.6,4.99,0.00,28.9,27.0,00.0,37.3,30.5,21.2,0003.1,0012.48,0016.25,0011.97
2023-05-21 06:47:00,,0834.5,4.99,0.00,28.9,27.0,00.0,37.3,30.4,21.3,0003.2,0012.49,0016.32,0011.96
2023-05-21 06:48:00,,0834.5,4.99,0.00,28.9,27.0,00.0,37.3,30.5,21.0,0003.2,0012.44,0016.28,0011.92
2023-05-21 06:49:00,,0834.5,5.01,0.00,28.9,27.0,00.0,37.3,30.4,21.0,0002.9,0012.39,0016.18,0011.89
2023-05-21 06:50:00,,0834.5,5.00,0.00,28.9,27.0,00.0,37.3,30.4,21.1,0002.8,0012.35,0016.07,0011.89
2023-05-21 06:51:00,,0834.5,5.01,0.00,28.9,27.0,00.0,37.3,30.4,20.5,0002.9,0012.34,0016.09,0011.87
2023-05-21 06:52:00,,0834.5,5.01,0.00,28.9,27.0,00.0,37.3,30.4,20.7,0002.9,0012.39,0016.29,0011.86
2023-05-21 06:53:00,,0834.5,5.01,0.00,28.9,27.0,00.0,37.3,30.4,20.5,0002.8,0012.38,0016.39,0011.85
2023-05-21 06:54:00,,0834.5,4.99,0.00,28.9,27.0,00.0,37.3,30.4,20.7,0002.8,0012.34,0016.30,0011.83
2023-05-21 06:55:00,,0834.5,4.99,0.00,28.8,27.0,00.0,37.3,30.4,20.6,0002.9,0012.32,0016.26,0011.81
2023-05-21 06:56:00,,0834.5,5.00,0.00,28.8,27.0,00.0,37.2,30.4,20.3,0003.1,0012.34,0016.37,0011.79
2023-05-21 06:57:00,,0834.5,5.00,0.00,28.8,27.0,00.0,37.2,30.4,20.3,0003.0,0012.32,0016.34,0011.76
2023-05-21 06:58:00,,0834.5,5.01,0.00,28.8,27.0,00.0,37.2,30.4,20.2,0002.8,0012.29,0016.27,0011.75
2023-05-21 06:59:00,,0834.5,5.00,0.00,28.8,26.9,00.0,37.2,30.4,20.3,0002.6,0012.29,0016.32,0011.72
